,

(GMT )
Banff

Weather History for CWZG - January, 2014

Change the Weather History Date:

Thursday, January 30, 2014

  Actual Average Record
Temperature  
Mean Temperature 7 °F -  
Max Temperature 16 °F - - ()
Min Temperature -2 °F - - ()
Degree Days  
Heating Degree Days 58    
Moisture  
Dew Point 1 °F    
Average Humidity 77    
Maximum Humidity 94    
Minimum Humidity 42    
Precipitation  
Precipitation 0.03 in - - ()
Sea Level Pressure  
Sea Level Pressure 30.04 in    
Wind  
Wind Speed 4 mph ()    
Max Wind Speed 9 mph    
Max Gust Speed -    
T = Trace of Precipitation, MM = Missing Value Source: Averaged Metar Reports

Daily Weather History Graph

Daily Weather History Graph

Search for Another Location

Airport or City:

Trip Planner

Search our weather history database for the weather conditions in past years. The results will help you decide how hot, cold, wet, or windy it might be!

Date:

Astronomy

Jan. 30, 2014 Rise Set
Actual Time 8:22 AM MST 5:29 PM MST
Civil Twilight 7:46 AM MST 6:05 PM MST
Nautical Twilight 7:06 AM MST 6:45 PM MST
Astronomical Twilight 6:27 AM MST 7:24 PM MST
Moon 7:46 AM MST (1/30) 5:54 PM MST (1/30)
Length of Visible Light 10h 19m
Length of Day
9h 07m
Waning Crescent, 0% of the Moon is Illuminated
Jan 30
Waning Crescent
Jan 30
New
Feb 6
First Quarter
Feb 14
Full
Feb 22
Last Quarter

Hourly Weather History & Observations

Time (MST) Temp. Windchill Dew Point Humidity Pressure Visibility Wind Dir Wind Speed Gust Speed Precip Events Conditions
12:00 AM 11.1 °F -1.6 °F 7.7 °F 86% 29.94 in - NE 9.2 mph - N/A   Unknown
1:00 AM 9.9 °F -2.2 °F 5.5 °F 83% 29.95 in - NE 8.1 mph - N/A   Unknown
2:00 AM 9.3 °F -1.7 °F 7.7 °F 93% 29.96 in - NE 6.9 mph - 0.01 in   Unknown
3:00 AM 8.4 °F -2.8 °F 5.0 °F 86% 29.99 in - NNE 6.9 mph - N/A   Unknown
4:00 AM 7.9 °F -2.2 °F 4.3 °F 85% 29.99 in - NE 5.8 mph - N/A   Unknown
5:00 AM 7.5 °F -2.6 °F 3.4 °F 83% 30.01 in - NE 5.8 mph - 0.01 in   Unknown
6:00 AM 7.2 °F 0.3 °F 3.6 °F 85% 30.04 in - NE 3.5 mph - N/A   Unknown
7:00 AM 6.8 °F -0.1 °F 3.7 °F 87% 30.06 in - ENE 3.5 mph - 0.01 in   Unknown
8:00 AM 6.3 °F -2.6 °F 2.7 °F 85% 30.07 in - ENE 4.6 mph - N/A   Unknown
9:00 AM 4.6 °F - 0.7 °F 84% 30.10 in - ENE 1.2 mph - N/A   Unknown
10:00 AM 5.5 °F - 0.5 °F 80% 30.11 in - East 2.3 mph - N/A   Unknown
11:00 AM 9.1 °F 2.6 °F 1.6 °F 71% 30.11 in - SSE 3.5 mph - N/A   Unknown
12:00 PM 10.6 °F - 0.1 °F 63% 30.09 in - South 2.3 mph - N/A   Unknown
1:00 PM 13.6 °F - -2.0 °F 50% 30.06 in - SW 2.3 mph - N/A   Unknown
2:00 PM 15.6 °F - -3.6 °F 42% 30.03 in - SE 2.3 mph - N/A   Unknown
3:00 PM 16.2 °F 9.0 °F -2.0 °F 45% 30.00 in - SW 4.6 mph - N/A   Unknown
4:00 PM 12.6 °F 6.5 °F 0.3 °F 58% 30.01 in - NNW 3.5 mph - N/A   Unknown
5:00 PM 8.6 °F - -0.8 °F 66% 30.03 in - NNE 1.2 mph - N/A   Unknown
6:00 PM 2.8 °F - -1.8 °F 81% 30.05 in - NNW 1.2 mph - N/A   Unknown
7:00 PM -0.2 °F - -3.1 °F 88% 30.06 in - WSW 1.2 mph - N/A   Unknown
8:00 PM -2.6 °F - -4.7 °F 90% 30.07 in - Calm Calm - N/A   Unknown
9:00 PM -0.0 °F - -1.5 °F 94% 30.06 in - NW 2.3 mph - N/A   Unknown
10:00 PM -0.2 °F -8.1 °F -3.3 °F 87% 30.06 in - SW 3.5 mph - N/A   Unknown
11:00 PM 1.6 °F -9.7 °F -3.5 °F 79% 30.04 in - WSW 5.8 mph - N/A   Unknown